www.pogodaiklimat.ru

Погода и климат >> Архив погоды >> Япония >> Хатидзёдзима


ПОГОДА на Хатидзёдзиме

  • Прогноз погоды на Хатидзёдзиме
  • Монитор погоды на Хатидзёдзиме

АРХИВ ПОГОДЫ на Хатидзёдзиме

Время (UTC), дата Ветер
(напр.,м/с)
 
Видим.   Явления Облачность Т
(С)
Тd
(С)
f
(%)
Тe
(С)
Тes
(С)
Комфортность P
(гПа)
Po
(гПа)
Тmin
(С)
Tmax
(С)
R
(мм)
R24
(мм)
S
(см)
15 18.08 Ю 3 20 км н/о +26.7 +25.8 95 +40 +40 очень
душно
1009.4 992.2
18 18.08 Ю 4 12 км слаб. дождь н/о +25.9 +25.7 99 +38 +38 очень
душно
1009.5 992.3 0.0
21 18.08 ЮЗ 2 8000 м в посл. час дождь н/о +25.6 +25.6 100 +37 +37 очень
душно
1010.3 993.0
00 19.08 СВ 3 3600 м дождь н/о +26.8 +26.5 98 +41 +41 опасность
перегрева
1010.8 993.6 +25.5 5
03 19.08 СВ 4 20 км {дождь} н/о +27.6 +26.4 93 +42 +42 опасность
перегрева
1010.7 993.5
06 19.08 С 2 20 км слаб. дождь н/о +27.9 +26.5 92 +43 +43 опасность
перегрева
1010.2 993.1 0.5
09 19.08 В 2 20 км {дождь} н/о +27.0 +26.1 95 +41 +41 опасность
перегрева
1010.4 993.2
10 19.08 В 2 20 км н/о +26.2 +25.9 98 +39 +39 очень
душно
1010.8 993.6
11 19.08 В 1 20 км н/о +25.8 +25.5 98 +38 +38 очень
душно
1011.4 994.1
12 19.08 В 2 20 км {дождь} н/о +25.7 +25.5 99 +37 +37 очень
душно
1011.5 994.2 +29.7 0.5
13 19.08 В 1 20 км н/о +25.3 +25.1 99 +36 +36 очень
душно
1011.6 994.3
14 19.08 В 1 20 км н/о +25.3 +25.1 99 +36 +36 очень
душно
1011.5 994.2
15 19.08 В 1 20 км н/о +25.1 +24.9 99 +36 +36 очень
душно
1011.2 993.9
16 19.08 ЮВ 1 20 км н/о +24.8 +24.8 100 +35 +35 очень
душно
1010.9 993.6
17 19.08 Ю 1 20 км н/о +25.0 +24.3 96 +35 +35 очень
душно
1010.8 993.5
18 19.08 В 1 20 км н/о +24.6 +24.1 97 +34 +34 очень
душно
1011.1 993.8
19 19.08 СВ 1 20 км н/о +24.9 +24.4 97 +35 +35 очень
душно
1011.2 993.9
20 19.08 ЮВ 2 20 км н/о +25.0 +24.8 99 +35 +35 очень
душно
1011.2 993.9
21 19.08 Ю 1 20 км слаб. дождь н/о +25.9 +25.9 100 +38 +38 очень
душно
1011.2 993.9
22 19.08 В 3 20 км в посл. час дождь н/о +26.5 +26.3 99 +40 +40 очень
душно
1010.9 993.7
23 19.08 З 1 20 км н/о +27.5 +26.5 94 +42 +42 опасность
перегрева
1011.0 993.8
00 20.08 В 3 20 км {дождь} н/о +30.5 +26.9 81 +48 +48 опасность
перегрева
1011.0 994.0 +24.6 0.0
01 20.08 З 3 20 км н/о +31.0 +25.8 74 +46 +46 опасность
перегрева
1010.8 993.8
02 20.08 З 2 20 км н/о +31.2 +26.0 74 +47 +47 опасность
перегрева
1010.4 993.5
03 20.08 З 4 20 км н/о +31.1 +25.9 74 +46 +46 опасность
перегрева
1010.3 993.4
04 20.08 З 4 20 км н/о +31.8 +26.1 72 +48 +48 опасность
перегрева
1009.9 993.0
05 20.08 З 4 20 км н/о +29.9 +25.9 79 +45 +45 опасность
перегрева
1010.1 993.1
06 20.08 З 4 20 км н/о +30.3 +26.5 80 +46 +46 опасность
перегрева
1010.0 993.0
07 20.08 З 4 20 км н/о +29.4 +26.0 82 +44 +44 опасность
перегрева
1010.0 993.0
08 20.08 З 4 20 км н/о +28.0 +26.2 90 +42 +42 опасность
перегрева
1010.1 993.0
09 20.08 З 4 20 км н/о +27.3 +25.9 92 +41 +41 опасность
перегрева
1010.3 993.1
10 20.08 З 4 18 км н/о +27.0 +26.0 94 +40 +40 очень
душно
1010.5 993.3
11 20.08 З 3 15 км н/о +26.8 +26.1 96 +40 +40 очень
душно
1010.8 993.6
12 20.08 З 4 19 км н/о +26.8 +25.9 95 +40 +40 очень
душно
1010.9 993.7 +32.6
13 20.08 З 5 20 км н/о +26.8 +25.8 94 +40 +40 очень
душно
1011.1 993.9
14 20.08 З 4 17 км н/о +26.8 +25.9 95 +40 +40 очень
душно
1010.6 993.4
15 20.08 З 4 17 км н/о +26.8 +25.9 95 +40 +40 очень
душно
1009.9 992.7
16 20.08 З 3 19 км н/о +26.7 +25.5 93 +39 +39 очень
душно
1009.7 992.5
17 20.08 З 4 20 км н/о +26.8 +25.4 92 +39 +39 очень
душно
1009.4 992.2
18 20.08 З 5 17 км н/о +26.9 +25.9 94 +40 +40 очень
душно
1009.7 992.5
20 20.08 З 3 15 км н/о +26.7 +25.7 94 +39 +39 очень
душно
1010.0 992.8
21 20.08 З 3 15 км н/о +27.0 +26.0 94 +40 +40 очень
душно
1010.2 993.0
22 20.08 З 4 15 км н/о +27.5 +26.1 92 +41 +41 опасность
перегрева
1010.6 993.4
23 20.08 З 3 16 км н/о +28.8 +26.6 88 +45 +45 опасность
перегрева
1010.7 993.6
00 21.08 З 4 15 км н/о +28.9 +26.3 86 +44 +44 опасность
перегрева
1011.0 993.9 +26.6
01 21.08 З 4 17 км н/о +29.2 +26.6 86 +45 +45 опасность
перегрева
1011.0 993.9
02 21.08 З 3 20 км н/о +30.1 +26.5 81 +46 +46 опасность
перегрева
1010.6 993.6
03 21.08 З 5 19 км н/о +29.7 +26.3 82 +45 +45 опасность
перегрева
1010.0 993.0
05 21.08 З 4 н/о н/о +30.1 +26.7 82 +47 +47 опасность
перегрева
1009.6 992.6
06 21.08 З 4 20 км н/о +30.0 +26.2 80 +45 +45 опасность
перегрева
1009.5 992.5
07 21.08 З 4 17 км н/о +28.1 +25.9 88 +42 +42 опасность
перегрева
1009.9 992.8
08 21.08 З 4 16 км н/о +27.7 +26.1 91 +42 +42 опасность
перегрева
1009.9 992.8
09 21.08 З 3 19 км н/о +27.1 +25.5 91 +40 +40 очень
душно
1010.3 993.1
10 21.08 З 4 18 км н/о +26.6 +24.8 90 +38 +38 очень
душно
1010.6 993.4
11 21.08 З 3 20 км н/о +26.2 +24.8 92 +37 +37 очень
душно
1011.1 993.9
12 21.08 З 3 20 км н/о +25.9 +24.7 93 +37 +37 очень
душно
1011.3 994.0 +31.0
13 21.08 З 4 15 км н/о +26.2 +25.5 96 +38 +38 очень
душно
1011.5 994.2
15 21.08 З 5 20 км н/о +26.5 +25.5 94 +39 +39 очень
душно
1010.9 993.7
16 21.08 З 5 20 км н/о +26.5 +25.6 95 +39 +39 очень
душно
1010.4 993.2
17 21.08 З 5 20 км н/о +26.5 +25.3 93 +38 +38 очень
душно
1009.8 992.6
18 21.08 З 5 20 км н/о +26.5 +25.1 92 +38 +38 очень
душно
1009.9 992.7
19 21.08 З 6 20 км н/о +26.6 +25.2 92 +38 +38 очень
душно
1009.9 992.7
20 21.08 З 5 20 км н/о +26.7 +24.9 90 +38 +38 очень
душно
1010.0 992.8
21 21.08 З 6 20 км н/о +26.9 +24.9 89 +39 +39 очень
душно
1010.3 993.1
22 21.08 З 7 20 км н/о +27.4 +24.9 86 +39 +39 очень
душно
1010.7 993.5
23 21.08 З 7 20 км н/о +28.0 +24.4 81 +39 +39 очень
душно
1011.0 993.9
00 22.08 З 6 20 км н/о +28.9 +25.5 82 +43 +43 опасность
перегрева
1011.4 994.3 +25.6
01 22.08 З 5 н/о н/о +31.5 +24.9 68 +45 +45 опасность
перегрева
1011.0 994.1
02 22.08 З 6 н/о н/о +31.0 +25.1 71 +45 +45 опасность
перегрева
1011.0 994.0
03 22.08 З 6 20 км н/о +31.2 +24.8 69 +44 +44 опасность
перегрева
1010.4 993.5
04 22.08 З 7 20 км н/о +30.9 +25.0 71 +44 +44 опасность
перегрева
1009.9 993.0
05 22.08 З 6 20 км н/о +30.3 +24.9 73 +43 +43 опасность
перегрева
1009.9 992.9
06 22.08 З 5 20 км н/о +30.0 +24.9 74 +43 +43 опасность
перегрева
1009.9 992.9
07 22.08 З 5 20 км н/о +29.1 +23.8 73 +40 +40 очень
душно
1010.2 993.1
08 22.08 З 5 20 км н/о +28.0 +24.6 82 +40 +40 очень
душно
1010.3 993.2
09 22.08 З 4 20 км н/о +27.2 +25.0 88 +39 +39 очень
душно
1010.8 993.6
11 22.08 З 4 20 км н/о +27.0 +25.4 91 +39 +39 очень
душно
1011.7 994.5
12 22.08 ЮЗ 4 20 км н/о +26.9 +25.5 92 +39 +39 очень
душно
1011.5 994.3 +32.2
13 22.08 ЮЗ 4 20 км н/о +26.9 +25.3 91 +39 +39 очень
душно
1011.3 994.1
14 22.08 З 5 20 км н/о +26.9 +25.1 90 +39 +39 очень
душно
1011.4 994.2
15 22.08 З 5 20 км н/о +26.9 +24.9 89 +39 +39 очень
душно
1011.0 993.8
16 22.08 З 5 20 км н/о +26.9 +25.1 90 +39 +39 очень
душно
1010.4 993.2
17 22.08 З 4 20 км н/о +26.8 +25.0 90 +39 +39 очень
душно
1010.1 992.9
18 22.08 З 6 20 км н/о +26.9 +24.9 89 +39 +39 очень
душно
1009.6 992.4
19 22.08 З 6 20 км н/о +26.9 +25.3 91 +39 +39 очень
душно
1009.4 992.2
20 22.08 З 6 20 км н/о +26.9 +25.3 91 +39 +39 очень
душно
1009.6 992.4
21 22.08 З 5 20 км н/о +27.2 +25.6 91 +40 +40 очень
душно
1009.8 992.6
22 22.08 З 6 20 км н/о +27.9 +25.9 89 +42 +42 опасность
перегрева
1009.5 992.4
23 22.08 ЮЗ 6 8000 м дымка н/о +27.7 +25.5 88 +41 +41 опасность
перегрева
1009.8 992.7
00 23.08 З 6 20 км н/о +29.6 +25.8 80 +44 +44 опасность
перегрева
1010.1 993.1 +26.8
01 23.08 З 6 19 км н/о +29.4 +26.4 84 +45 +45 опасность
перегрева
1010.0 993.0
02 23.08 З 7 20 км н/о +29.5 +25.9 81 +44 +44 опасность
перегрева
1009.8 992.8
03 23.08 З 6 18 км н/о +29.3 +25.7 81 +43 +43 опасность
перегрева
1009.5 992.5
04 23.08 З 7 20 км н/о +29.3 +25.9 82 +44 +44 опасность
перегрева
1009.5 992.5
05 23.08 З 6 18 км н/о +29.2 +26.2 84 +44 +44 опасность
перегрева
1009.1 992.1
06 23.08 З 6 16 км н/о +28.7 +25.9 85 +43 +43 опасность
перегрева
1009.0 991.9
07 23.08 З 6 16 км слаб. дождь н/о +28.2 +25.8 87 +42 +42 опасность
перегрева
1009.3 992.2
08 23.08 З 6 15 км в посл. час дождь н/о +27.9 +25.7 88 +41 +41 опасность
перегрева
1009.2 992.1
09 23.08 З 6 15 км {дождь} н/о +27.6 +25.8 90 +41 +41 опасность
перегрева
1009.1 992.0
10 23.08 З 5 14 км в посл. час дождь н/о +27.4 +25.8 91 +41 +41 опасность
перегрева
1009.5 992.4
11 23.08 З 5 15 км н/о +27.4 +25.8 91 +41 +41 опасность
перегрева
1010.0 992.8
12 23.08 З 7 14 км {дождь} н/о +27.4 +26.0 92 +41 +41 опасность
перегрева
1010.1 992.9 +30.3 0.0
13 23.08 З 6 12 км н/о +27.4 +26.0 92 +41 +41 опасность
перегрева
1009.9 992.7
14 23.08 З 7 12 км в посл. час дождь н/о +27.3 +26.1 93 +41 +41 опасность
перегрева
1009.9 992.7
15 23.08 З 6 14 км {дождь} н/о +27.4 +26.0 92 +41 +41 опасность
перегрева
1010.1 992.9
16 23.08 З 6 12 км н/о +27.2 +26.2 94 +41 +41 опасность
перегрева
1009.7 992.5
17 23.08 З 6 2500 м дождь н/о +25.1 +24.6 97 +35 +35 очень
душно
1009.9 992.6
18 23.08 З 5 8000 м в посл. час дождь н/о +25.4 +25.4 100 +37 +37 очень
душно
1009.8 992.5 5
19 23.08 З 5 10 км слаб. дождь н/о +25.4 +25.2 99 +37 +37 очень
душно
1009.9 992.6
20 23.08 З 5 16 км в посл. час дождь н/о +25.3 +24.3 94 +35 +35 очень
душно
1010.0 992.7
21 23.08 З 4 11 км слаб. дождь н/о +25.2 +24.5 96 +35 +35 очень
душно
1010.4 993.1
22 23.08 З 3 11 км слаб. дождь н/о +24.9 +24.2 96 +34 +34 очень
душно
1011.2 993.9
23 23.08 З 3 10 км слаб. дождь н/о +25.4 +24.7 96 +36 +36 очень
душно
1011.2 993.9
00 24.08 З 4 10 км слаб. дождь н/о +25.9 +25.0 95 +37 +37 очень
душно
1011.8 994.5 +24.6 6
02 24.08 З 2 7000 м слаб. дождь н/о +24.0 +23.8 99 +33 +33 очень
душно
1011.4 994.0
03 24.08 ЮЗ 3 10 км слаб. дождь н/о +25.2 +24.7 97 +35 +35 очень
душно
1010.3 993.0
04 24.08 ЮЗ 3 10 км слаб. дождь н/о +25.4 +25.1 98 +36 +36 очень
душно
1010.5 993.2
05 24.08 ЮЗ 7 18 км слаб. дождь н/о +25.6 +24.6 94 +36 +36 очень
душно
1010.3 993.0
06 24.08 ЮЗ 7 20 км слаб. дождь н/о +26.1 +25.1 94 +37 +37 очень
душно
1010.1 992.9 6
08 24.08 З 7 20 км в посл. час дождь н/о +26.1 +24.2 89 +36 +36 очень
душно
1010.4 993.2
09 24.08 З 7 20 км {дождь} н/о +26.0 +24.1 89 +36 +36 очень
душно
1010.8 993.5
10 24.08 З 6 20 км н/о +26.0 +24.2 90 +36 +36 очень
душно
1010.8 993.5
11 24.08 З 6 19 км слаб. дождь н/о +26.2 +24.8 92 +37 +37 очень
душно
1010.9 993.7
12 24.08 З 7 19 км в посл. час дождь н/о +25.9 +23.8 88 +35 +35 очень
душно
1011.2 993.9 +26.3 7
13 24.08 З 5 20 км н/о +25.9 +24.1 90 +36 +36 очень
душно
1011.1 993.8
14 24.08 З 5 20 км н/о +26.0 +23.9 88 +36 +36 очень
душно
1010.9 993.6
15 24.08 З 5 17 км н/о +26.1 +25.1 94 +37 +37 очень
душно
1010.3 993.1
16 24.08 З 5 12 км в посл. час дождь н/о +25.9 +25.2 96 +37 +37 очень
душно
1009.9 992.7
18 24.08 ЮЗ 4 5000 м слаб. дождь н/о +24.7 +24.7 100 +35 +35 очень
душно
1009.6 992.3 0.0
19 24.08 З 3 4600 м слаб. дождь н/о +24.1 +24.1 100 +33 +33 очень
душно
1010.1 992.7
20 24.08 ЮЗ 2 7000 м слаб. дождь н/о +23.5 +23.3 99 +32 +32 очень
душно
1010.3 992.9
21 24.08 З 5 12 км {дождь} н/о +24.8 +23.6 93 +34 +34 очень
душно
1010.5 993.2
22 24.08 З 5 10 км слаб. дождь н/о +23.8 +22.1 90 +31 +31 очень
душно
1010.9 993.5
23 24.08 З 5 16 км в посл. час дождь н/о +23.9 +22.2 90 +31 +31 очень
душно
1011.4 994.0
00 25.08 З 4 15 км слаб. дождь н/о +23.7 +21.8 89 +30 +30 очень
душно
1011.6 994.2 +23.4 8
01 25.08 З 3 20 км в посл. час дождь н/о +25.5 +22.6 84 +34 +34 очень
душно
1011.3 994.0
02 25.08 З 5 20 км н/о +27.1 +22.5 76 +36 +36 очень
душно
1011.2 994.0
03 25.08 З 5 20 км {дождь} н/о +27.8 +22.3 72 +36 +36 очень
душно
1010.8 993.7
04 25.08 З 6 20 км н/о +27.7 +22.6 74 +37 +37 очень
душно
1011.0 993.8
05 25.08 З 5 20 км н/о +28.3 +22.5 71 +37 +37 очень
душно
1010.8 993.7
06 25.08 З 5 20 км {дождь} н/о +27.7 +22.2 72 +36 +36 очень
душно
1010.9 993.7 0.5
07 25.08 З 4 20 км н/о +26.7 +21.2 72 +34 +34 очень
душно
1010.9 993.7
08 25.08 З 4 20 км н/о +25.7 +21.4 77 +33 +33 очень
душно
1011.1 993.8
09 25.08 З 5 20 км н/о +25.0 +21.9 83 +32 +32 очень
душно
1011.6 994.3
10 25.08 З 4 20 км н/о +24.2 +21.3 84 +31 +31 очень
душно
1011.9 994.5
11 25.08 З 4 20 км н/о +24.5 +21.6 84 +31 +31 очень
душно
1012.1 994.7
12 25.08 З 3 20 км н/о +24.5 +21.4 83 +31 +31 очень
душно
1012.0 994.6 +28.5 0.5
13 25.08 З 4 18 км н/о +24.6 +21.9 85 +32 +32 очень
душно
1012.0 994.6
14 25.08 З 4 18 км н/о +24.7 +22.0 85 +32 +32 очень
душно
1011.7 994.3

 

Местоположение метеостанции Хатидзёдзима (Япония): широта 33.12 долгота 139.78 высота над уровнем моря 80 м.

В архиве по умолчанию представлена погода на Хатидзёдзиме за последнюю неделю. Архивные данные за месяц целиком и за предыдущие месяцы, начиная с января 2011 года, Вы можете получить, выбрав интересующий диапазон дат из раскрывающегося списка и нажав кнопку "Ввод!".


*Определитесь, кто Вы:
робот инопланетянин человек

Внимание! Время в таблицах - всемирное. Для получения местного времени необходимо прибавить поправку, которая равна 9 ч.

Смотрите также архив погоды в соседних городах и на ближайших метеорологических станциях:

Погода на Миякедзиме (Япония) (114 км)
Погода на Осиме (Япония) (185 км)
Погода в Иродзаки (Япония) (186 км)
Погода в Татеяме (Япония) (207 км)
Погода в Омаэдзаки (Япония) (219 км)
Погода в Аджиро (Япония) (224 км)
Погода в Кацууре (Япония) (231 км)
Погода в Мисиме (Япония) (236 км)
Погода в Сидзуоке (Япония) (243 км)
Погода в Иокогаме (Япония) (257 км)

Пояснения к столбцам:

Ветер - указаны скорость ветра в м/с - средняя за 10 мин, порывы в срок и между сроками (в фигурных скобках) и направление, откуда дует ветер: С - северный, СВ - северо-восточный, В - восточный, ЮВ - юго-восточный, Ю - южный, ЮЗ - юго-западный, З - западный, СЗ - северо-западный.
Видимость - горизонтальная дальность видимости в метрах или километрах. При видимости от 1 до 10 км при отсутствии осадков обычно наблюдается дымка, при ухудшении видимости до 1 км и менее - туман. В сухую погоду видимость может ухудшаться дымом, пылью или мглою.
Явления - указаны атмосферные явления, наблюдавшиеся в срок или в последний час перед сроком; фигурными скобками обозначены явления, наблюдавшиеся между сроками (за 1-3 часа до срока); квадратными скобками обозначены град или гололедные отложения с указанием их диаметра в мм.
Облачность - указаны через наклонную черту общая и нижняя облачность в баллах и высота нижней границы облаков в метрах; квадратными скобками обозначены формы облаков: Ci - перистые, Cs - перисто-слоистые, Cc - перисто-кучевые, Ac - высококучевые, As - высокослоистые, Sc - слоисто-кучевые, Ns - слоисто-дождевые, Cu - кучевые, Cb - кучево-дождевые. Подробнее классификацию облаков см. в Атласе облаков (PDF).
T - Температура воздуха - температура, измеренная на высоте 2 м над землей.
Td - Температура точки росы - температура, при понижении до которой содержащийся в воздухе водяной пар достигнет насыщения.
f - Относительная влажность воздуха - влажноcть воздуха, измеренная на высоте 2 м над землей.
Te - Эффективная температура - температура, которую ощущает одетый по сезону человек в тени. Характеристика душности погоды. При расчете учитывается влияние влажности воздуха и скорости ветра на теплоощущения человека.
Tes - Эффективная температура на солнце - температура, которую ощущает человек, с поправкой на солнечный нагрев. Характеристика знойности погоды. Зависит от высоты солнца над горизонтом, облачности и скорости ветра. Ночью, в пасмурную погоду, а также при ветре 12 м/с и более поправка равна нулю.
P - Атмосферное давление - приведенное к уровню моря атмосферное давление.
Po - Атмосферное давление - измеренное на уровне метеостанции атмосферное давление.
Tmin - Минимальная температура - минимум температуры воздуха на высоте 2 м над землей.
Tmax - Максимальная температура - максимум температуры воздуха на высоте 2 м над землей.
R - Количество осадков - Количество выпавших осадков за период времени, мм. При наведении курсора мыши на число - период времени, за который выпало указанное количество осадков.
R24 - Количество осадков - Количество выпавших осадков за 24 часа, мм.
S - Снежный покров - Высота снежного покрова, см. При наведении курсора мыши на число - состояние снежного покрова и степень покрытия местности в баллах.